QPF
0.00 0.00 0.00 0.00 0.00 0.00 0.00 0.00 0.00 0.00 0.00 0.00 0.00 0.00 0.00 0.00 0.00 0.00 0.00 0.00 0.00 0.00 0.00 0.00 0.00 0.00 0.00 0.00 0.00 0.00 0.00 0.00 0.00 0.00 0.00 0.00 0.00 0.00 0.00 0.00 0.00 0.00 0.00 0.00 0.00 0.00 0.00
0.00 0.00 0.00 0.00 0.00 0.00 0.00 0.00 0.00 0.00 0.00 0.00 0.00 0.00 0.00 0.00 0.00 0.00 0.00 0.00 0.00 0.00 0.00 0.00 0.00 0.00 0.00 0.00 0.00 0.00 0.00 0.00 0.00 0.00 0.00 0.00 0.00 0.00 0.00 0.00 0.00 0.00 0.00 0.00 0.00 0.00 0.00
0.00 0.00 0.00 0.00 0.00 0.00 0.00 0.00 0.00 0.00 0.00 0.00 0.00 0.00 0.00 0.00 0.00 0.00 0.00 0.00 0.00 0.00 0.00 0.00 0.00 0.00 0.00 0.00 0.00 0.00 0.00 0.00 0.00 0.00 0.00 0.00 0.00 0.00 0.00 0.00 0.00 0.00 0.00 0.00 0.00 0.00 0.00
0.01 0.00 0.00 0.00 0.00 0.00 0.00 0.00 0.00 0.00 0.00 0.00 0.00 0.00 0.00 0.00 0.00 0.00 0.00 0.00 0.00 0.00 0.00 0.00 0.00 0.00 0.00 0.00 0.00 0.00 0.00 0.00 0.00 0.00 0.00 0.00 0.00 0.00 0.00 0.00 0.00 0.00 0.00 0.00 0.00 0.00 0.00
0.03 0.02 0.02 0.01 0.00 0.00 0.00 0.00 0.01 0.01 0.00 0.00 0.00 0.00 0.00 0.00 0.00 0.00 0.00 0.00 0.00 0.00 0.00 0.00 0.00 0.00 0.00 0.00 0.00 0.00 0.00 0.00 0.00 0.00 0.00 0.00 0.00 0.00 0.00 0.00 0.00 0.00 0.00 0.00 0.00 0.00 0.00
0.12 0.05 0.04 0.04 0.03 0.01 0.01 0.01 0.01 0.02 0.02 0.00 0.00 0.00 0.00 0.00 0.00 0.00 0.00 0.00 0.00 0.00 0.00 0.00 0.00 0.00 0.00 0.00 0.00 0.00 0.00 0.00 0.00 0.00 0.00 0.00 0.00 0.00 0.00 0.00 0.00 0.00 0.00 0.00 0.00 0.00 0.00
0.33 0.24 0.12 0.10 0.08 0.07 0.05 0.03 0.03 0.02 0.02 0.01 0.00 0.00 0.00 0.00 0.00 0.00 0.00 0.00 0.00 0.00 0.00 0.00 0.00 0.00 0.00 0.00 0.00 0.00 0.00 0.00 0.00 0.00 0.00 0.00 0.00 0.00 0.00 0.00 0.00 0.00 0.00 0.00 0.00 0.00 0.00
0.16 0.21 0.22 0.16 0.16 0.19 0.21 0.14 0.06 0.04 0.03 0.01 0.00 0.00 0.00 0.00 0.00 0.00 0.00 0.00 0.00 0.00 0.00 0.00 0.00 0.00 0.00 0.00 0.00 0.00 0.00 0.00 0.00 0.00 0.00 0.00 0.00 0.00 0.00 0.00 0.00 0.00 0.00 0.00 0.00 0.00 0.00
0.08 0.11 0.20 0.22 0.26 0.33 0.38 0.34 0.21 0.11 0.06 0.02 0.00 0.00 0.00 0.00 0.00 0.00 0.00 0.00 0.00 0.00 0.00 0.00 0.00 0.00 0.00 0.00 0.00 0.00 0.00 0.00 0.00 0.00 0.00 0.00 0.00 0.00 0.00 0.00 0.00 0.00 0.00 0.00 0.00 0.00 0.00
0.08 0.13 0.23 0.31 0.44 0.52 0.59 0.52 0.34 0.23 0.10 0.03 0.01 0.00 0.00 0.00 0.00 0.00 0.00 0.00 0.00 0.00 0.00 0.00 0.00 0.00 0.00 0.00 0.00 0.00 0.00 0.00 0.00 0.00 0.00 0.00 0.00 0.00 0.00 0.00 0.00 0.00 0.00 0.00 0.00 0.00 0.00
0.18 0.28 0.32 0.39 0.56 0.71 0.70 0.66 0.54 0.40 0.23 0.10 0.04 0.01 0.00 0.00 0.00 0.00 0.00 0.00 0.00 0.00 0.00 0.00 0.00 0.00 0.00 0.00 0.00 0.00 0.00 0.00 0.00 0.00 0.00 0.00 0.00 0.00 0.00 0.00 0.00 0.00 0.00 0.00 0.00 0.01 0.01
0.20 0.39 0.58 0.66 0.65 0.59 0.61 0.52 0.51 0.41 0.24 0.11 0.06 0.02 0.00 0.00 0.00 0.00 0.00 0.00 0.00 0.00 0.00 0.00 0.00 0.00 0.00 0.00 0.00 0.00 0.00 0.00 0.00 0.00 0.00 0.00 0.00 0.00 0.00 0.00 0.00 0.00 0.00 0.00 0.00 0.01 0.01
0.74 0.52 0.48 0.62 0.74 0.72 0.59 0.47 0.38 0.32 0.22 0.14 0.10 0.06 0.02 0.00 0.00 0.00 0.00 0.00 0.00 0.00 0.00 0.00 0.00 0.00 0.00 0.00 0.00 0.00 0.00 0.00 0.00 0.00 0.00 0.00 0.00 0.00 0.00 0.00 0.00 0.00 0.00 0.00 0.00 0.00 0.01
0.47 0.65 0.64 0.54 0.52 0.55 0.54 0.47 0.34 0.25 0.19 0.16 0.17 0.17 0.09 0.02 0.00 0.00 0.00 0.01 0.04 0.00 0.00 0.00 0.00 0.00 0.00 0.00 0.00 0.00 0.00 0.00 0.00 0.00 0.00 0.00 0.00 0.00 0.00 0.00 0.00 0.00 0.00 0.00 0.00 0.00 0.00
0.14 0.25 0.44 0.46 0.44 0.37 0.33 0.33 0.28 0.24 0.23 0.20 0.21 0.19 0.08 0.02 0.01 0.00 0.02 0.04 0.01 0.00 0.00 0.00 0.00 0.00 0.00 0.00 0.00 0.00 0.00 0.00 0.00 0.00 0.00 0.00 0.00 0.00 0.00 0.00 0.00 0.00 0.00 0.00 0.01 0.01 0.03
0.21 0.14 0.26 0.30 0.35 0.32 0.25 0.22 0.20 0.19 0.19 0.16 0.15 0.15 0.09 0.03 0.01 0.02 0.06 0.02 0.00 0.00 0.00 0.00 0.00 0.00 0.00 0.00 0.00 0.00 0.00 0.00 0.00 0.00 0.00 0.02 0.04 0.00 0.00 0.00 0.00 0.01 0.00 0.03 0.05 0.10 0.06
0.63 0.27 0.24 0.25 0.26 0.24 0.22 0.15 0.14 0.15 0.12 0.08 0.12 0.18 0.16 0.07 0.05 0.07 0.04 0.00 0.00 0.00 0.00 0.00 0.00 0.00 0.00 0.00 0.00 0.00 0.00 0.00 0.00 0.00 0.00 0.02 0.08 0.03 0.00 0.00 0.00 0.03 0.06 0.11 0.19 0.31 0.38
0.57 0.51 0.33 0.32 0.27 0.21 0.20 0.18 0.13 0.11 0.10 0.08 0.10 0.10 0.10 0.10 0.14 0.08 0.01 0.00 0.00 0.00 0.00 0.00 0.00 0.00 0.00 0.00 0.00 0.00 0.00 0.00 0.00 0.00 0.00 0.00 0.02 0.02 0.00 0.00 0.00 0.05 0.16 0.18 0.25 0.22 0.22
0.41 0.45 0.41 0.33 0.29 0.24 0.19 0.17 0.19 0.13 0.09 0.05 0.04 0.03 0.08 0.06 0.04 0.01 0.00 0.00 0.00 0.00 0.00 0.00 0.00 0.00 0.00 0.00 0.00 0.00 0.00 0.00 0.00 0.00 0.00 0.00 0.01 0.02 0.00 0.00 0.01 0.03 0.05 0.10 0.17 0.19 0.14
0.28 0.28 0.33 0.34 0.29 0.22 0.18 0.17 0.18 0.15 0.10 0.03 0.04 0.09 0.16 0.10 0.00 0.00 0.00 0.00 0.00 0.00 0.00 0.00 0.00 0.00 0.00 0.00 0.00 0.01 0.00 0.00 0.00 0.00 0.00 0.00 0.00 0.00 0.00 0.00 0.00 0.00 0.00 0.02 0.09 0.14 0.12
0.07 0.11 0.17 0.27 0.27 0.22 0.18 0.15 0.15 0.17 0.15 0.04 0.04 0.03 0.04 0.06 0.01 0.00 0.00 0.00 0.00 0.00 0.00 0.00 0.00 0.00 0.00 0.00 0.00 0.00 0.00 0.00 0.00 0.00 0.00 0.03 0.01 0.00 0.00 0.00 0.00 0.00 0.00 0.00 0.00 0.01 0.02
0.03 0.03 0.04 0.08 0.15 0.20 0.16 0.13 0.13 0.18 0.20 0.06 0.04 0.00 0.00 0.00 0.00 0.00 0.00 0.00 0.00 0.00 0.00 0.00 0.00 0.00 0.00 0.00 0.00 0.00 0.01 0.01 0.00 0.00 0.00 0.00 0.00 0.00 0.00 0.00 0.00 0.00 0.00 0.00 0.00 0.00 0.00
0.01 0.02 0.02 0.01 0.03 0.10 0.12 0.11 0.11 0.20 0.25 0.14 0.03 0.00 0.00 0.00 0.00 0.00 0.00 0.00 0.00 0.00 0.00 0.00 0.00 0.00 0.00 0.00 0.00 0.02 0.03 0.03 0.01 0.00 0.00 0.00 0.00 0.00 0.00 0.00 0.00 0.00 0.00 0.00 0.00 0.00 0.00
0.00 0.01 0.01 0.01 0.00 0.01 0.05 0.07 0.07 0.15 0.20 0.06 0.00 0.00 0.00 0.01 0.00 0.00 0.00 0.00 0.00 0.00 0.00 0.00 0.00 0.00 0.00 0.00 0.00 0.01 0.03 0.01 0.00 0.00 0.00 0.00 0.00 0.00 0.00 0.00 0.00 0.00 0.00 0.00 0.00 0.00 0.00
0.00 0.00 0.01 0.01 0.01 0.01 0.01 0.02 0.04 0.11 0.21 0.07 0.00 0.00 0.00 0.01 0.00 0.00 0.00 0.00 0.00 0.00 0.00 0.00 0.00 0.00 0.00 0.00 0.00 0.00 0.00 0.00 0.00 0.00 0.00 0.00 0.00 0.00 0.01 0.00 0.00 0.00 0.00 0.01 0.03 0.03 0.02
0.01 0.01 0.00 0.02 0.02 0.02 0.01 0.00 0.01 0.04 0.18 0.09 0.06 0.02 0.01 0.01 0.00 0.00 0.00 0.00 0.00 0.00 0.00 0.00 0.00 0.00 0.00 0.00 0.00 0.00 0.00 0.00 0.00 0.00 0.00 0.00 0.00 0.01 0.01 0.02 0.00 0.00 0.00 0.00 0.01 0.05 0.02
0.01 0.01 0.01 0.01 0.02 0.02 0.02 0.02 0.01 0.02 0.07 0.07 0.07 0.04 0.01 0.01 0.00 0.00 0.00 0.00 0.00 0.00 0.00 0.00 0.00 0.00 0.00 0.00 0.00 0.00 0.00 0.00 0.00 0.00 0.00 0.00 0.00 0.01 0.00 0.00 0.00 0.01 0.00 0.00 0.03 0.07 0.02
0.01 0.01 0.01 0.01 0.01 0.02 0.01 0.03 0.03 0.02 0.02 0.01 0.01 0.01 0.00 0.00 0.00 0.00 0.00 0.01 0.00 0.01 0.00 0.00 0.00 0.00 0.00 0.00 0.00 0.00 0.00 0.00 0.00 0.00 0.00 0.00 0.00 0.00 0.00 0.01 0.01 0.00 0.00 0.01 0.03 0.04 0.02
0.02 0.01 0.01 0.01 0.01 0.01 0.02 0.03 0.04 0.02 0.02 0.00 0.00 0.00 0.00 0.00 0.00 0.00 0.00 0.00 0.01 0.01 0.00 0.00 0.00 0.00 0.00 0.00 0.00 0.00 0.00 0.00 0.00 0.00 0.00 0.00 0.00 0.00 0.00 0.00 0.01 0.00 0.00 0.00 0.01 0.00 0.00
MSLP
1007.21 1007.69 1008.62 1008.96 1009.53 1010.02 1010.52 1010.97 1011.51 1012.00 1012.32 1012.68 1012.84 1013.18 1013.71 1013.98 1014.36 1014.68 1014.93 1015.05 1015.19 1015.26 1015.24 1015.14 1015.06 1014.98 1014.37 1014.36 1012.21 1010.51 1010.42 1010.53 1010.55 1010.85 1010.85 1010.98 1011.14 1011.37 1011.44 1011.34 1011.43 1011.15 1010.51 1010.25 1010.12 1009.94 1009.39
1005.98 1006.51 1007.14 1007.80 1008.36 1008.98 1009.54 1010.04 1010.62 1011.21 1011.68 1011.97 1012.26 1012.54 1013.06 1013.62 1013.86 1014.44 1015.02 1015.11 1014.84 1015.12 1015.15 1015.03 1015.17 1015.13 1014.67 1013.95 1010.86 1010.86 1010.94 1010.84 1010.65 1011.04 1011.11 1011.01 1010.98 1011.23 1011.32 1011.43 1011.77 1010.92 1010.62 1010.47 1010.10 1009.49 1009.07
1004.33 1005.26 1005.81 1006.52 1007.09 1007.88 1008.53 1009.11 1009.73 1010.29 1010.92 1011.31 1011.84 1012.16 1012.64 1013.11 1013.44 1013.93 1014.53 1014.99 1015.04 1015.06 1014.80 1015.05 1015.25 1015.10 1014.87 1012.45 1010.75 1011.05 1011.20 1011.34 1011.11 1011.16 1011.26 1011.03 1011.17 1011.40 1011.88 1011.76 1011.45 1011.30 1010.99 1010.17 1009.57 1008.75 1008.46
1002.58 1003.51 1004.48 1005.19 1005.83 1006.62 1007.42 1008.13 1008.79 1009.31 1010.05 1010.69 1011.28 1011.69 1012.20 1012.88 1013.16 1013.67 1014.27 1014.36 1015.09 1014.99 1014.79 1015.07 1015.33 1015.03 1014.12 1011.32 1010.95 1011.11 1010.70 1010.78 1010.78 1011.07 1011.31 1011.18 1011.41 1011.90 1012.20 1012.21 1011.90 1012.05 1011.63 1010.67 1008.94 1008.44 1008.09
1000.89 1001.83 1002.77 1003.69 1004.49 1005.40 1006.33 1007.01 1007.79 1008.50 1009.34 1009.81 1010.69 1011.14 1011.80 1012.43 1012.74 1013.46 1013.77 1014.22 1015.15 1014.65 1014.72 1015.12 1015.16 1015.35 1013.10 1010.83 1010.85 1010.22 1010.36 1010.41 1010.36 1010.75 1011.12 1011.14 1011.68 1012.23 1012.42 1012.60 1012.70 1012.66 1011.76 1010.82 1009.73 1008.83 1008.39
999.73 1000.15 1001.05 1001.96 1002.83 1003.89 1004.96 1005.91 1006.73 1007.58 1008.37 1009.10 1009.96 1010.51 1011.26 1011.87 1012.68 1013.05 1013.61 1014.62 1014.50 1014.65 1014.76 1014.88 1015.20 1015.34 1012.13 1010.54 1010.12 1009.64 1010.22 1010.51 1010.14 1010.53 1011.25 1011.47 1011.64 1012.11 1012.50 1012.80 1012.13 1012.18 1011.94 1010.94 1010.55 1009.41 1008.89
1000.12 999.51 999.20 1000.21 1001.33 1002.40 1003.37 1004.42 1005.60 1006.59 1007.37 1008.26 1009.23 1009.79 1010.52 1011.52 1012.29 1012.97 1013.66 1014.80 1014.94 1014.99 1014.47 1013.09 1013.07 1012.45 1010.91 1010.34 1010.01 1009.87 1010.05 1010.16 1010.34 1010.25 1011.03 1011.41 1011.86 1010.97 1010.75 1011.13 1010.86 1011.21 1011.19 1010.97 1010.82 1010.07 1009.44
999.19 998.76 998.63 998.46 999.57 1000.67 1001.89 1003.04 1004.03 1005.41 1006.26 1007.40 1008.24 1009.30 1009.94 1010.98 1011.99 1012.71 1013.49 1013.65 1012.75 1013.06 1013.17 1012.36 1012.34 1012.10 1010.96 1010.96 1011.17 1010.03 1009.77 1010.44 1010.67 1010.66 1010.66 1010.82 1009.91 1010.17 1010.57 1010.99 1011.19 1011.02 1010.93 1010.05 1009.79 1009.59 1009.52
997.86 997.59 997.95 996.83 997.77 998.92 1000.09 1001.42 1002.55 1003.94 1005.18 1006.36 1007.33 1008.44 1009.40 1010.56 1011.70 1012.69 1012.93 1012.56 1012.34 1012.73 1013.08 1011.80 1011.29 1011.00 1010.76 1010.95 1010.84 1009.81 1010.15 1010.16 1010.85 1010.88 1010.71 1010.14 1009.16 1008.75 1009.87 1010.40 1010.87 1010.34 1010.94 1010.15 1010.21 1009.80 1009.19
995.81 995.68 995.83 995.56 996.11 997.17 998.11 999.59 1001.12 1002.45 1003.92 1005.42 1006.58 1007.56 1008.64 1010.15 1011.85 1012.03 1012.26 1011.74 1011.92 1012.28 1012.67 1011.39 1010.80 1009.94 1010.09 1010.23 1010.40 1009.57 1009.62 1010.02 1010.61 1010.46 1010.95 1010.01 1009.07 1008.90 1009.55 1009.76 1010.06 1008.72 1009.90 1009.94 1010.00 1010.12 1008.80
993.54 992.96 993.24 993.82 994.48 995.89 996.87 998.18 999.86 1001.35 1003.37 1004.97 1006.20 1007.01 1008.14 1008.63 1009.97 1011.06 1011.10 1011.39 1011.81 1012.20 1012.24 1010.37 1009.81 1009.32 1009.64 1010.04 1009.69 1009.56 1009.54 1009.77 1010.11 1010.42 1010.95 1009.47 1008.79 1008.83 1009.24 1009.34 1009.41 1008.17 1009.26 1009.67 1009.70 1009.33 1009.37
991.21 989.32 990.25 991.98 993.10 994.56 996.11 997.54 999.31 1000.89 1002.91 1004.55 1005.51 1007.88 1008.10 1008.92 1009.53 1009.91 1010.40 1011.13 1012.12 1012.54 1010.67 1009.43 1009.18 1009.39 1009.81 1009.61 1009.28 1009.48 1009.75 1009.76 1009.86 1010.32 1010.80 1010.20 1009.35 1009.37 1009.00 1009.26 1009.48 1009.31 1009.42 1009.53 1009.21 1008.80 1008.55
990.28 987.66 989.25 990.93 992.52 994.08 995.50 996.96 998.80 1001.08 1002.88 1004.12 1005.50 1007.59 1008.41 1008.58 1009.17 1009.47 1010.37 1011.36 1012.64 1011.64 1009.88 1009.61 1009.50 1009.60 1009.66 1009.70 1009.63 1009.56 1010.23 1010.50 1010.79 1011.03 1011.12 1010.34 1009.57 1008.90 1008.75 1009.14 1009.69 1009.89 1010.52 1010.40 1008.97 1008.11 1006.34
992.21 990.38 991.10 991.87 993.18 994.64 996.49 998.46 999.51 1000.86 1002.51 1004.26 1005.93 1007.25 1008.28 1009.08 1009.31 1009.62 1010.13 1011.67 1012.15 1010.59 1010.17 1009.83 1009.58 1009.56 1009.87 1010.21 1010.59 1010.36 1010.81 1011.64 1011.95 1012.19 1012.30 1011.71 1009.73 1009.46 1009.87 1010.04 1009.98 1009.97 1010.51 1010.56 1009.27 1007.63 1005.72
992.98 992.58 993.27 993.97 995.02 996.21 997.24 998.97 1000.40 1001.39 1002.55 1004.56 1006.16 1007.68 1009.01 1009.33 1009.17 1009.39 1010.48 1011.72 1010.82 1010.32 1009.93 1010.30 1010.21 1010.04 1010.65 1011.09 1011.02 1011.22 1011.95 1012.83 1013.54 1013.65 1014.01 1013.39 1011.61 1010.46 1010.73 1010.57 1010.88 1009.88 1009.45 1009.29 1009.37 1008.79 1007.54
992.90 993.44 994.12 994.74 995.90 996.99 998.11 999.04 1000.24 1001.49 1002.81 1004.24 1006.01 1007.79 1009.14 1009.33 1009.64 1010.37 1010.74 1010.88 1010.81 1010.43 1010.17 1010.35 1010.69 1011.18 1011.62 1012.09 1012.00 1012.46 1012.71 1013.77 1014.57 1014.94 1014.78 1015.52 1014.45 1012.48 1011.78 1011.07 1011.05 1011.74 1010.98 1010.07 1010.04 1008.93 1007.07
993.37 993.60 994.35 995.07 995.90 997.01 998.35 999.45 1000.39 1001.63 1002.98 1004.03 1006.29 1008.33 1008.98 1009.39 1010.14 1011.06 1010.58 1010.89 1010.81 1010.58 1010.34 1010.65 1011.34 1011.93 1012.58 1012.69 1012.94 1013.28 1013.31 1014.41 1014.76 1015.40 1015.45 1016.02 1016.22 1013.63 1012.81 1012.35 1012.66 1012.89 1012.84 1012.91 1012.67 1011.25 1010.40
995.81 994.21 994.77 995.24 996.19 997.22 998.40 999.60 1000.75 1001.93 1003.25 1004.26 1006.87 1008.65 1009.24 1009.40 1011.59 1011.77 1011.64 1011.27 1010.89 1010.72 1010.83 1011.32 1011.85 1012.34 1013.22 1013.19 1013.82 1014.16 1013.89 1014.06 1014.74 1015.28 1015.82 1016.45 1016.51 1015.63 1014.09 1012.89 1012.94 1013.65 1014.79 1014.70 1014.71 1012.92 1011.70
997.59 996.55 996.27 996.61 997.34 998.09 999.20 1000.15 1001.26 1002.27 1003.09 1004.48 1007.52 1009.20 1009.60 1009.70 1010.88 1011.56 1011.53 1011.17 1011.23 1011.45 1011.45 1011.98 1012.43 1012.64 1013.53 1013.86 1014.52 1014.64 1014.43 1014.67 1014.85 1015.19 1015.58 1016.39 1016.73 1016.38 1015.06 1014.56 1014.28 1014.08 1014.50 1014.24 1014.65 1014.37 1012.59
999.07 998.53 998.17 998.13 998.33 998.76 999.74 1000.65 1001.45 1002.55 1003.53 1004.80 1007.56 1009.12 1009.84 1010.22 1010.70 1010.78 1010.72 1011.25 1012.26 1011.92 1011.94 1012.06 1012.60 1013.33 1014.35 1014.64 1014.87 1015.12 1015.12 1014.89 1014.99 1015.12 1015.43 1015.74 1016.63 1016.82 1016.30 1015.41 1014.67 1014.70 1014.45 1013.89 1014.30 1013.54 1012.03
999.89 999.97 999.70 999.61 999.60 1000.19 1000.87 1001.29 1002.07 1003.06 1004.06 1005.16 1007.31 1008.31 1008.42 1009.40 1010.22 1010.56 1010.89 1011.77 1012.61 1012.56 1012.40 1012.44 1013.16 1013.67 1014.46 1014.96 1015.31 1015.37 1015.51 1015.44 1015.21 1015.13 1015.61 1016.12 1016.28 1016.59 1016.56 1015.97 1015.04 1014.61 1014.23 1012.55 1013.34 1012.10 1012.08
1000.06 1000.32 1000.75 1000.79 1001.09 1001.61 1002.14 1002.67 1002.68 1003.61 1004.50 1005.89 1007.32 1008.10 1008.90 1008.67 1009.63 1010.87 1011.38 1012.23 1012.55 1012.49 1012.38 1013.05 1013.31 1013.97 1014.44 1014.86 1014.91 1015.14 1015.26 1015.59 1015.62 1015.50 1015.70 1016.56 1016.73 1016.74 1016.64 1015.57 1015.16 1014.77 1013.59 1011.71 1011.86 1011.31 1010.55
1000.44 1000.54 1000.83 1001.36 1001.75 1002.27 1002.58 1003.10 1003.59 1003.93 1004.88 1006.54 1007.22 1007.71 1007.92 1009.45 1009.97 1011.12 1011.18 1011.77 1011.84 1012.08 1012.53 1012.63 1013.44 1014.36 1014.81 1014.79 1014.91 1015.10 1015.36 1015.58 1015.71 1015.88 1016.07 1017.08 1017.67 1017.79 1017.07 1015.93 1015.35 1014.15 1012.32 1011.31 1010.64 1010.12 1009.51
1000.22 1000.44 1000.68 1001.07 1001.68 1002.28 1002.95 1003.31 1003.90 1004.45 1005.13 1006.44 1006.99 1007.46 1008.39 1009.63 1009.87 1010.19 1010.80 1011.29 1011.72 1012.23 1012.63 1013.02 1013.55 1014.25 1014.23 1014.41 1015.42 1015.82 1015.81 1015.79 1015.75 1015.60 1016.15 1016.67 1017.75 1018.18 1017.57 1016.53 1015.73 1012.64 1011.86 1011.34 1010.83 1009.14 1008.67
999.52 1000.01 1000.39 1000.72 1001.27 1001.90 1002.61 1003.28 1003.85 1004.68 1005.44 1006.29 1006.97 1007.32 1008.60 1009.55 1009.81 1010.54 1011.05 1011.34 1011.63 1012.24 1012.70 1012.78 1013.48 1013.47 1013.65 1015.45 1016.27 1016.56 1016.63 1016.32 1015.48 1015.01 1015.70 1016.45 1017.53 1018.29 1018.00 1016.75 1014.90 1013.13 1012.41 1012.12 1011.20 1009.69 1009.34
998.94 999.15 999.73 1000.30 1000.85 1001.49 1002.17 1002.74 1003.70 1004.51 1005.29 1006.50 1007.28 1007.41 1008.05 1009.30 1010.25 1010.16 1010.80 1011.27 1011.83 1012.23 1012.78 1012.88 1013.14 1013.49 1014.21 1016.01 1017.03 1018.04 1017.17 1016.56 1016.11 1015.18 1015.30 1016.34 1017.14 1017.81 1017.88 1016.99 1015.02 1013.01 1012.25 1011.54 1011.36 1010.02 1009.50
998.19 998.58 999.00 999.57 1000.29 1001.05 1001.79 1002.43 1003.23 1004.39 1005.39 1006.51 1007.43 1007.62 1008.49 1009.93 1010.46 1010.30 1010.79 1010.97 1011.41 1011.80 1012.50 1012.68 1013.41 1014.44 1014.41 1016.82 1018.38 1018.48 1017.92 1017.14 1016.54 1015.51 1015.64 1016.61 1017.26 1017.30 1017.18 1016.81 1014.53 1012.51 1011.67 1010.84 1011.02 1010.39 1009.55
996.89 997.52 998.21 998.87 999.67 1000.56 1001.40 1002.26 1003.09 1004.09 1005.19 1006.20 1007.71 1008.16 1008.61 1009.93 1010.36 1010.18 1010.28 1010.59 1011.20 1011.64 1012.06 1013.30 1013.39 1014.36 1015.35 1016.86 1018.11 1018.64 1018.25 1017.61 1016.42 1015.30 1015.11 1015.60 1016.34 1016.79 1016.77 1016.18 1013.92 1011.55 1011.01 1010.85 1010.08 1008.95 1008.81
995.62 996.13 996.98 997.92 998.82 999.79 1000.79 1001.81 1002.86 1003.88 1004.91 1005.83 1007.68 1008.25 1008.35 1009.54 1010.62 1010.46 1010.18 1010.37 1010.55 1010.78 1011.58 1012.94 1013.00 1013.41 1013.84 1015.81 1017.30 1017.96 1018.08 1017.77 1016.69 1015.93 1014.67 1014.77 1014.12 1014.48 1014.29 1012.70 1011.16 1010.55 1010.09 1009.35 1009.18 1008.93 1008.04
Thickness
5640 5640 5638 5641 5642 5644 5645 5646 5645 5646 5648 5649 5652 5653 5651 5652 5652 5652 5652 5654 5655 5657 5658 5661 5664 5665 5674 5671 5685 5701 5706 5706 5707 5704 5701 5695 5690 5685 5678 5681 5685 5683 5692 5697 5697 5697 5701
5632 5633 5633 5635 5637 5639 5640 5640 5641 5641 5641 5643 5645 5647 5646 5644 5644 5642 5639 5642 5646 5646 5647 5650 5652 5654 5661 5656 5692 5689 5691 5692 5694 5690 5687 5687 5685 5682 5677 5677 5672 5684 5686 5686 5690 5696 5695
5630 5627 5629 5630 5633 5633 5633 5635 5635 5635 5634 5635 5635 5638 5637 5637 5635 5635 5630 5626 5631 5633 5638 5638 5642 5645 5647 5664 5681 5679 5678 5678 5680 5679 5674 5680 5679 5674 5669 5667 5674 5676 5671 5684 5688 5694 5690
5627 5626 5625 5625 5627 5628 5627 5627 5629 5629 5628 5627 5628 5629 5628 5626 5626 5623 5618 5618 5616 5623 5626 5624 5629 5633 5641 5667 5671 5670 5675 5672 5672 5670 5669 5671 5668 5662 5657 5659 5661 5655 5660 5655 5689 5691 5690
5624 5624 5624 5624 5623 5622 5621 5622 5621 5621 5620 5623 5620 5621 5619 5617 5616 5612 5612 5609 5606 5613 5616 5615 5618 5619 5639 5662 5661 5669 5667 5664 5668 5664 5661 5664 5658 5648 5647 5641 5636 5639 5640 5645 5661 5680 5680
5617 5622 5622 5623 5623 5621 5617 5616 5616 5615 5614 5615 5612 5612 5611 5609 5605 5605 5603 5598 5602 5604 5607 5607 5609 5612 5637 5652 5659 5665 5659 5657 5660 5659 5651 5649 5646 5636 5632 5630 5630 5624 5627 5635 5640 5662 5662
5593 5607 5621 5621 5620 5618 5616 5614 5610 5608 5608 5608 5605 5606 5604 5599 5596 5594 5594 5588 5592 5592 5597 5618 5616 5624 5639 5646 5650 5651 5650 5651 5650 5653 5641 5639 5628 5639 5644 5642 5647 5640 5632 5628 5631 5644 5642
5584 5597 5608 5620 5619 5618 5615 5612 5610 5605 5604 5601 5600 5596 5595 5591 5587 5585 5584 5586 5601 5599 5597 5608 5611 5615 5627 5628 5623 5637 5645 5635 5634 5632 5638 5638 5638 5643 5638 5633 5630 5630 5626 5633 5638 5636 5628
5575 5589 5598 5617 5619 5618 5616 5611 5608 5603 5598 5594 5593 5589 5586 5582 5576 5573 5575 5584 5588 5587 5582 5601 5606 5612 5614 5613 5613 5627 5623 5624 5621 5621 5626 5632 5642 5647 5637 5625 5616 5623 5611 5621 5613 5615 5620
5571 5586 5599 5614 5618 5618 5619 5612 5606 5601 5593 5588 5582 5580 5578 5572 5564 5566 5570 5580 5579 5579 5567 5591 5596 5604 5606 5607 5605 5616 5617 5616 5607 5612 5611 5616 5634 5637 5625 5615 5611 5620 5618 5612 5606 5597 5602
5573 5593 5603 5611 5616 5613 5611 5606 5600 5594 5581 5574 5570 5569 5566 5570 5566 5562 5569 5568 5568 5568 5547 5588 5586 5597 5597 5597 5602 5605 5608 5603 5598 5602 5599 5611 5620 5616 5607 5607 5606 5618 5609 5601 5599 5593 5580
5578 5604 5610 5610 5609 5605 5598 5595 5589 5577 5566 5560 5559 5546 5551 5553 5554 5557 5558 5556 5552 5549 5551 5577 5583 5580 5579 5587 5595 5592 5591 5593 5591 5588 5588 5593 5604 5599 5600 5600 5597 5599 5593 5585 5588 5584 5564
5567 5598 5600 5597 5594 5590 5586 5583 5576 5559 5550 5547 5544 5533 5534 5539 5540 5544 5542 5538 5517 5525 5562 5564 5568 5570 5571 5574 5576 5581 5575 5571 5571 5571 5573 5583 5591 5597 5594 5579 5579 5574 5564 5545 5545 5557 5570
5531 5560 5563 5570 5572 5567 5561 5552 5550 5543 5539 5530 5523 5518 5516 5519 5520 5523 5526 5511 5493 5535 5542 5554 5557 5560 5559 5555 5555 5557 5557 5547 5541 5545 5549 5553 5581 5581 5572 5566 5565 5557 5548 5534 5532 5556 5573
5511 5531 5533 5535 5535 5537 5538 5532 5527 5525 5522 5508 5500 5495 5492 5497 5506 5510 5505 5489 5499 5524 5541 5537 5539 5541 5539 5536 5540 5542 5528 5525 5523 5519 5525 5525 5547 5564 5551 5553 5551 5557 5547 5556 5533 5542 5533
5495 5509 5514 5517 5517 5514 5513 5512 5511 5506 5499 5493 5486 5480 5475 5479 5485 5483 5481 5485 5497 5512 5519 5519 5513 5514 5509 5509 5516 5515 5518 5508 5499 5493 5499 5482 5498 5531 5534 5533 5534 5521 5536 5533 5529 5528 5537
5484 5492 5495 5499 5503 5498 5494 5492 5492 5489 5483 5479 5469 5458 5460 5463 5465 5458 5471 5467 5484 5497 5501 5501 5497 5495 5492 5493 5498 5498 5504 5488 5483 5471 5474 5462 5456 5498 5510 5508 5495 5492 5495 5481 5467 5504 5487
5448 5467 5474 5481 5483 5484 5482 5478 5474 5472 5466 5461 5450 5445 5444 5450 5436 5436 5445 5465 5478 5480 5483 5480 5479 5478 5475 5478 5477 5477 5486 5485 5472 5463 5455 5444 5436 5427 5476 5498 5485 5470 5452 5450 5453 5464 5467
5419 5433 5448 5457 5461 5463 5462 5462 5459 5458 5456 5452 5431 5429 5429 5436 5432 5434 5442 5456 5458 5460 5462 5460 5461 5466 5461 5456 5447 5458 5466 5454 5450 5451 5436 5432 5423 5412 5449 5454 5451 5450 5453 5444 5433 5433 5452
5398 5411 5423 5432 5439 5446 5446 5445 5446 5444 5441 5437 5422 5419 5411 5419 5422 5429 5441 5443 5438 5446 5447 5449 5443 5443 5435 5432 5436 5425 5435 5441 5440 5441 5439 5430 5418 5410 5407 5417 5428 5425 5446 5449 5430 5425 5440
5384 5391 5402 5409 5418 5422 5425 5429 5430 5428 5426 5425 5411 5410 5420 5423 5419 5419 5426 5426 5428 5423 5427 5432 5428 5431 5422 5411 5413 5421 5422 5420 5424 5429 5420 5407 5405 5406 5412 5420 5426 5424 5431 5441 5424 5436 5415
5380 5382 5386 5393 5397 5400 5405 5407 5413 5411 5410 5406 5402 5403 5402 5421 5420 5411 5411 5406 5413 5414 5413 5405 5406 5413 5409 5405 5417 5412 5407 5405 5404 5406 5395 5391 5383 5383 5373 5414 5410 5404 5420 5437 5432 5435 5434
5371 5375 5378 5380 5384 5389 5392 5396 5398 5397 5397 5389 5393 5398 5404 5401 5401 5399 5399 5405 5408 5409 5405 5406 5401 5385 5386 5390 5392 5395 5391 5385 5388 5392 5388 5374 5356 5356 5367 5401 5390 5377 5428 5429 5433 5441 5438
5366 5369 5373 5376 5377 5378 5380 5385 5387 5385 5386 5383 5388 5388 5389 5386 5393 5403 5401 5398 5393 5397 5386 5392 5390 5383 5392 5386 5379 5377 5376 5375 5378 5382 5384 5370 5364 5347 5353 5378 5323 5413 5420 5417 5416 5437 5426
5360 5361 5365 5367 5370 5372 5373 5374 5376 5375 5374 5376 5376 5380 5375 5376 5386 5382 5383 5385 5384 5387 5386 5384 5382 5383 5382 5374 5359 5358 5354 5368 5379 5379 5372 5367 5357 5333 5343 5359 5377 5405 5401 5394 5399 5415 5408
5351 5355 5357 5359 5360 5362 5366 5369 5368 5369 5366 5365 5364 5369 5371 5370 5370 5380 5373 5377 5369 5370 5372 5375 5374 5371 5369 5360 5343 5334 5344 5374 5371 5380 5368 5361 5359 5347 5324 5332 5345 5391 5382 5385 5382 5392 5400
5344 5345 5346 5348 5350 5352 5355 5357 5359 5359 5355 5355 5353 5359 5356 5349 5353 5364 5359 5367 5365 5362 5361 5367 5362 5360 5361 5318 5293 5317 5346 5364 5357 5369 5371 5328 5329 5342 5337 5324 5356 5373 5376 5382 5377 5378 5382
5346 5345 5343 5341 5340 5339 5340 5343 5345 5345 5343 5344 5339 5342 5344 5337 5343 5352 5357 5357 5354 5351 5349 5353 5353 5349 5337 5323 5323 5297 5308 5332 5348 5365 5366 5357 5313 5312 5292 5286 5321 5376 5375 5367 5376 5391 5392
5349 5349 5347 5343 5341 5338 5336 5333 5332 5332 5332 5334 5328 5331 5337 5330 5333 5340 5348 5352 5355 5357 5348 5340 5351 5347 5343 5319 5303 5298 5305 5309 5324 5324 5354 5344 5345 5330 5331 5334 5372 5370 5372 5381 5379 5382 5391